Find Starlink 32143

NORAD ID: 60296 Int'l Des: 2024-132 Owner: SPXS Country: US Constellation: starlink operational
LEOCIRCULAR

Current View

Loading 3D Globe...

About Starlink 32143

Starlink 32143 (NORAD 60296) is a starlink constellation satellite (v2 mini) launched Jul 28, 2024 by SPXS of US. It operates in LEO, CIRCULAR orbit with a mass of 730.00 kg.

About Starlink 32143

Description loading...

Upcoming Passes

Passes for default location (London). Set your location on the main map for personalized predictions.

Altitude History

Loading altitude history...

Two-Line Element Set

1 60296U 24132U 26176.50978088 .00001283 00000-0 53093-4 0 9990
2 60296 53.1593 271.2302 0000938 98.9006 261.2102 15.31709203108071
Epoch: Jun 25, 2026 • Age: 8 hours

Current Status

Altitude 476.5 km
Velocity 7.63 km/s
Sub-Earth Point 52.50°N, 152.07°E
Launch Date Jul 28, 2024
Age 1.9 years
Type internet

Technical Details

Classification Payload
Mass 730.00 kg
Dry Mass 700.00 kg
Total Mass 730.00 kg
Length 0.30 m
Diameter 4.10 m
Span 29.00 m
Shape Box + pan
Manufacturer SPXS
Bus Type Starlink V2M
Phase Status In Orbit
Owner/State SPXS/US

Most Searched